Weather past 2 weeks in Port-aux-Francais, French Southern Territories

Now
41 °F

Quite cool.


Feels Like: 33 °F
Forecast: 38 / 42 °F
Wind: 18 mph from Southwest

Location: Port-Aux-Francais Iles Kerguelen

Current Time: Mar 27, 2015 at 9:15:51 PM

Latest Report: Mar 27, 2015 at 8:00 PM


Visibility: N/A

Pressure: 29.59 "Hg

Humidity: 81%

Dew point: 36 °F

Location of Port-aux-FrancaisLocation

Historic Weather in Port-aux-Francais — Graph

°F

Port-aux-Francais temperature yesterday

Maximum temperature yesterday: 61 °F (at 6:00 PM)
Minimum temperature yesterday: 47 °F (at 3:00 AM)
Average temperature yesterday: 54 °F

Past Weeks' High & Low Weather Summary

 TemperatureHumidityPressure
High66 °F (Mar 17, 1:00 PM)91% (Mar 23, 9:00 AM)30.32 "Hg (Mar 23, 9:00 AM)
Low36 °F (Mar 14, 12:00 AM)41% (Mar 26, 12:00 PM)29.38 "Hg (Mar 25, 1:00 PM)
Average47 °F68%29.87 "Hg
* Reported Mar 12 8:00 PM — Mar 27 8:00 PM, Port-aux-Francais, Weather by CustomWeather, © 2015

Note: Actual official high and low records may vary slightly from our data, if they occured in-between our weather recording intervals... More about our weather records

Advertising

Port-aux-Francais weather history for previous 24 hours

 ConditionsComfort  
Time TempWeatherWind HumidityBarometerVisibility
8:00 PM
Fri, Mar 27
41 °FQuite cool.18 mph81%29.59 "HgN/A
7:00 PM43 °FQuite cool.25 mph86%29.55 "HgN/A
6:00 PM50 °FCool.10 mph87%29.47 "HgN/A
5:00 PM54 °FCool.24 mph82%29.47 "HgN/A
4:00 PM56 °FCool.25 mph79%29.44 "HgN/A
3:00 PM58 °FCool.22 mph77%29.47 "HgN/A
2:00 PM57 °FOvercast.25 mph84%29.50 "Hg9 mi
1:00 PM56 °FCool.25 mph82%29.54 "HgN/A
12:00 PM58 °FCool.30 mph79%29.58 "HgN/A
11:00 AM54 °FOvercast.8 mph85%29.65 "Hg12 mi
10:00 AM52 °FCool.18 mph84%29.69 "HgN/A
9:00 AM53 °FCool.18 mph75%29.71 "HgN/A
7:00 AM50 °FCool.18 mph79%29.77 "HgN/A
6:00 AM51 °FCool.10 mph73%29.76 "HgN/A
5:00 AM50 °FCool.15 mph73%29.78 "HgN/A
4:00 AM51 °FCool.18 mph73%29.78 "HgN/A
3:00 AM51 °FCool.17 mph73%29.77 "HgN/A
2:00 AM52 °FCool.14 mph74%29.75 "HgN/A
1:00 AM53 °FCool.12 mph70%29.74 "HgN/A
12:00 AM52 °FCool.2 mph72%29.71 "HgN/A
11:00 PM
Thu, Mar 26
53 °FCool.23 mph70%29.66 "HgN/A
10:00 PM56 °FCool.37 mph64%29.63 "HgN/A
9:00 PM57 °FCool.32 mph66%29.62 "HgN/A
Weather by CustomWeather, © 2015

See weather overviewHow to use our weather pages